Weather History for Fort Madison, IA

Change the Weather History Date:

Monday, January 21, 2013

  Actual Average Record
Temperature  
Mean Temperature 6 °F -  
Max Temperature 10 °F 33 °F 58 °F (1957)
Min Temperature 3 °F 17 °F -19 °F (1963)
Degree Days  
Heating Degree Days 58    
Moisture  
Dew Point -3 °F    
Average Humidity 65    
Maximum Humidity 85    
Minimum Humidity 44    
Precipitation  
Precipitation 0.00 in - - ()
Sea Level Pressure  
Sea Level Pressure 30.34 in    
Wind  
Wind Speed 15 mph (WNW)    
Max Wind Speed 24 mph    
Max Gust Speed 31 mph    
Visibility 10 miles    
Events      
Averages and records for this station are not official NWS values.
T = Trace of Precipitation, MM = Missing Value Source: NWS Daily Summary

Daily Weather History Graph

Daily Weather History Graph

Search for Another Location

Airport:

Trip Planner

Search our weather history database for the weather conditions in past years. The results will help you decide how hot, cold, wet, or windy it might be!

Date:

Astronomy

Jan. 21, 2013 Rise Set
Actual Time 7:23 AM CST 5:10 PM CST
Civil Twilight 6:54 AM CST 5:39 PM CST
Nautical Twilight 6:20 AM CST 6:13 PM CST
Astronomical Twilight 5:48 AM CST 6:45 PM CST
Moon 12:50 PM CST (1/21) 2:52 AM CST (1/21)
Length of Visible Light 10h 45m
Length of Day
9h 46m
Waxing Gibbous, 75% of the Moon is Illuminated
Jan 21
Waxing Gibbous
Jan 26
Full
Feb 3
Last Quarter
Feb 10
New
Feb 17
First Quarter

Hourly Weather History & Observations

Time (CST) Temp. Windchill Dew Point Humidity Pressure Visibility Wind Dir Wind Speed Gust Speed Precip Events Conditions
12:15 AM 10.4 °F -4.8 °F 6.8 °F 85% 30.31 in 10.0 mi WNW 12.7 mph 18.4 mph N/A   Clear
12:35 AM 10.4 °F -4.8 °F 6.8 °F 85% 30.31 in 10.0 mi WNW 12.7 mph 16.1 mph N/A   Mostly Cloudy
12:55 AM 10.4 °F -5.4 °F 6.8 °F 85% 30.31 in 10.0 mi WNW 13.8 mph 19.6 mph N/A   Overcast
1:15 AM 10.4 °F -7.7 °F 6.8 °F 85% 30.31 in 10.0 mi WNW 18.4 mph 24.2 mph N/A   Overcast
1:35 AM 10.4 °F -7.2 °F 3.2 °F 73% 30.31 in 10.0 mi WNW 17.3 mph 25.3 mph N/A   Mostly Cloudy
1:55 AM 8.6 °F -8.9 °F 3.2 °F 79% 30.31 in 10.0 mi WNW 16.1 mph 23.0 mph N/A   Scattered Clouds
2:15 AM 8.6 °F -7.7 °F 3.2 °F 79% 30.31 in 10.0 mi WNW 13.8 mph 23.0 mph N/A   Clear
2:35 AM 8.6 °F -7.7 °F 1.4 °F 73% 30.30 in 10.0 mi WNW 13.8 mph - N/A   Clear
2:55 AM 8.6 °F -8.3 °F 3.2 °F 79% 30.30 in 10.0 mi WNW 15.0 mph 18.4 mph N/A   Clear
3:15 AM 8.6 °F -8.3 °F 3.2 °F 79% 30.30 in 10.0 mi WNW 15.0 mph 20.7 mph N/A   Clear
3:35 AM 8.6 °F -8.9 °F 3.2 °F 79% 30.30 in 10.0 mi WNW 16.1 mph 20.7 mph N/A   Clear
3:55 AM 8.6 °F -9.5 °F 1.4 °F 73% 30.30 in 10.0 mi WNW 17.3 mph 27.6 mph N/A   Scattered Clouds
4:15 AM 8.6 °F -10.5 °F -0.4 °F 67% 30.30 in 10.0 mi WNW 19.6 mph 29.9 mph N/A   Scattered Clouds
4:35 AM 8.6 °F -8.3 °F -2.2 °F 62% 30.30 in 10.0 mi WNW 15.0 mph - N/A   Clear
4:55 AM 8.6 °F -10.5 °F -0.4 °F 67% 30.30 in 10.0 mi WNW 19.6 mph 25.3 mph N/A   Clear
5:15 AM 6.8 °F -10.0 °F -0.4 °F 72% 30.30 in 10.0 mi WNW 13.8 mph 23.0 mph N/A   Scattered Clouds
5:35 AM 6.8 °F -11.8 °F -2.2 °F 67% 30.31 in 10.0 mi WNW 17.3 mph 28.8 mph N/A   Scattered Clouds
5:55 AM 6.8 °F -11.8 °F -2.2 °F 67% 30.31 in 10.0 mi WNW 17.3 mph 28.8 mph N/A   Scattered Clouds
6:15 AM 6.8 °F -12.4 °F -2.2 °F 67% 30.32 in 10.0 mi WNW 18.4 mph 26.5 mph N/A   Clear
6:35 AM 5.0 °F -15.2 °F -2.2 °F 72% 30.31 in 10.0 mi WNW 19.6 mph 25.3 mph N/A   Clear
6:55 AM 5.0 °F -13.0 °F -2.2 °F 72% 30.32 in 10.0 mi WNW 15.0 mph 19.6 mph N/A   Clear
7:15 AM 5.0 °F -14.7 °F -2.2 °F 72% 30.33 in 10.0 mi NW 18.4 mph 23.0 mph N/A   Clear
7:35 AM 3.2 °F -16.5 °F -4.0 °F 72% 30.34 in 10.0 mi WNW 17.3 mph - N/A   Clear
7:55 AM 3.2 °F -13.1 °F -2.2 °F 78% 30.34 in 10.0 mi WNW 11.5 mph 23.0 mph N/A   Clear
8:15 AM 3.2 °F -17.6 °F -2.2 °F 78% 30.34 in 10.0 mi WNW 19.6 mph 25.3 mph N/A   Clear
8:35 AM 5.0 °F -15.7 °F -2.2 °F 72% 30.34 in 10.0 mi WNW 20.7 mph 25.3 mph N/A   Scattered Clouds
8:55 AM 3.2 °F -18.1 °F -2.2 °F 78% 30.35 in 10.0 mi NW 20.7 mph 27.6 mph N/A   Mostly Cloudy
9:15 AM 5.0 °F -15.2 °F -2.2 °F 72% 30.35 in 2.0 mi NW 19.6 mph 26.5 mph N/A   Haze
9:35 AM 5.0 °F -14.2 °F -2.2 °F 72% 30.36 in 4.0 mi NW 17.3 mph 24.2 mph N/A   Haze
9:55 AM 5.0 °F -14.7 °F -2.2 °F 72% 30.36 in 10.0 mi NW 18.4 mph 25.3 mph N/A   Mostly Cloudy
10:15 AM 5.0 °F -15.7 °F -7.6 °F 56% 30.37 in 10.0 mi WNW 20.7 mph 31.1 mph N/A   Scattered Clouds
10:35 AM 6.8 °F -12.4 °F -5.8 °F 56% 30.37 in 10.0 mi WNW 18.4 mph 25.3 mph N/A   Clear
10:55 AM 6.8 °F -12.9 °F -5.8 °F 56% 30.38 in 10.0 mi NW 19.6 mph 29.9 mph N/A   Clear
11:15 AM 6.8 °F -14.7 °F -5.8 °F 56% 30.39 in 10.0 mi NW 24.2 mph 28.8 mph N/A   Clear
11:35 AM 6.8 °F -10.7 °F -5.8 °F 56% 30.38 in 10.0 mi WNW 15.0 mph 25.3 mph N/A   Clear
11:55 AM 6.8 °F -12.9 °F -5.8 °F 56% 30.37 in 10.0 mi NW 19.6 mph 27.6 mph N/A   Clear
12:15 PM 6.8 °F -12.4 °F -7.6 °F 52% 30.36 in 10.0 mi NW 18.4 mph 23.0 mph N/A   Clear
12:35 PM 8.6 °F -8.3 °F -5.8 °F 52% 30.35 in 10.0 mi NW 15.0 mph 21.9 mph N/A   Scattered Clouds
12:55 PM 8.6 °F -9.5 °F -5.8 °F 52% 30.35 in 10.0 mi NW 17.3 mph 24.2 mph N/A   Mostly Cloudy
1:15 PM 8.6 °F -9.5 °F -7.6 °F 48% 30.35 in 10.0 mi NW 17.3 mph 24.2 mph N/A   Mostly Cloudy
1:35 PM 8.6 °F -8.3 °F -5.8 °F 52% 30.34 in 10.0 mi NW 15.0 mph 21.9 mph N/A   Mostly Cloudy
1:55 PM 8.6 °F -8.9 °F -5.8 °F 52% 30.34 in 10.0 mi NW 16.1 mph 20.7 mph N/A   Mostly Cloudy
2:15 PM 8.6 °F -7.7 °F -5.8 °F 52% 30.35 in 10.0 mi NW 13.8 mph 21.9 mph N/A   Overcast
2:35 PM 6.8 °F -11.8 °F -5.8 °F 56% 30.35 in 10.0 mi West 17.3 mph 21.9 mph N/A   Overcast
2:55 PM 8.6 °F -8.3 °F -5.8 °F 52% 30.35 in 10.0 mi WNW 15.0 mph 19.6 mph N/A   Scattered Clouds
3:15 PM 10.4 °F -6.0 °F -4.0 °F 52% 30.35 in 10.0 mi WNW 15.0 mph - N/A   Scattered Clouds
3:35 PM 10.4 °F -6.6 °F -5.8 °F 48% 30.34 in 10.0 mi West 16.1 mph 20.7 mph N/A   Clear
3:55 PM 10.4 °F -7.2 °F -7.6 °F 44% 30.34 in 10.0 mi NW 17.3 mph - N/A   Clear
4:15 PM 10.4 °F -5.4 °F -5.8 °F 48% 30.34 in 10.0 mi WNW 13.8 mph - N/A   Scattered Clouds
4:35 PM 8.6 °F -8.3 °F -5.8 °F 52% 30.34 in 10.0 mi NW 15.0 mph 18.4 mph N/A   Clear
4:55 PM 8.6 °F -7.7 °F -5.8 °F 52% 30.35 in 10.0 mi NW 13.8 mph - N/A   Scattered Clouds
5:15 PM 8.6 °F -5.5 °F -5.8 °F 52% 30.35 in 10.0 mi NW 10.4 mph - N/A   Scattered Clouds
5:35 PM 8.6 °F -4.7 °F -5.8 °F 52% 30.35 in 10.0 mi NW 9.2 mph - N/A   Clear
5:55 PM 6.8 °F -4.8 °F -4.0 °F 61% 30.35 in 10.0 mi NW 6.9 mph - N/A   Clear
6:15 PM 6.8 °F -4.8 °F -4.0 °F 61% 30.35 in 10.0 mi WNW 6.9 mph - N/A   Clear
6:35 PM 6.8 °F -2.0 °F -2.2 °F 67% 30.36 in 10.0 mi NW 4.6 mph - N/A   Clear
6:55 PM 6.8 °F -5.9 °F -2.2 °F 67% 30.36 in 10.0 mi West 8.1 mph - N/A   Clear
7:15 PM 6.8 °F -5.9 °F -4.0 °F 61% 30.36 in 10.0 mi West 8.1 mph - N/A   Clear
7:35 PM 6.8 °F -5.9 °F -4.0 °F 61% 30.36 in 10.0 mi West 8.1 mph - N/A   Clear
7:55 PM 6.8 °F -7.8 °F -4.0 °F 61% 30.36 in 10.0 mi West 10.4 mph - N/A   Clear
8:15 PM 6.8 °F -6.9 °F -4.0 °F 61% 30.36 in 10.0 mi West 9.2 mph - N/A   Clear
8:35 PM 6.8 °F -5.9 °F -4.0 °F 61% 30.36 in 10.0 mi West 8.1 mph - N/A   Clear
8:55 PM 6.8 °F -4.8 °F -4.0 °F 61% 30.37 in 10.0 mi West 6.9 mph - N/A   Clear
9:15 PM 6.8 °F -5.9 °F -4.0 °F 61% 30.37 in 10.0 mi WNW 8.1 mph - N/A   Clear
9:35 PM 5.0 °F -4.1 °F -2.2 °F 72% 30.37 in 10.0 mi NW 4.6 mph - N/A   Clear
9:55 PM 3.2 °F -4.2 °F -2.2 °F 78% 30.37 in 10.0 mi WNW 3.5 mph - N/A   Clear
10:15 PM 5.0 °F -5.6 °F -2.2 °F 72% 30.37 in 10.0 mi West 5.8 mph - N/A   Clear
10:35 PM 5.0 °F -6.9 °F -2.2 °F 72% 30.38 in 10.0 mi West 6.9 mph - N/A   Clear
10:55 PM 5.0 °F -6.9 °F -2.2 °F 72% 30.38 in 10.0 mi West 6.9 mph - N/A   Clear
11:15 PM 5.0 °F -5.6 °F -2.2 °F 72% 30.38 in 10.0 mi WNW 5.8 mph - N/A   Clear
11:35 PM 5.0 °F -12.3 °F -4.0 °F 66% 30.37 in 10.0 mi NW 13.8 mph 20.7 mph N/A   Clear
11:55 PM 5.0 °F -11.6 °F -4.0 °F 66% 30.37 in 10.0 mi WNW 12.7 mph 20.7 mph N/A   Clear